Location: ??? ?????
(30.6482°N, 60.5850°E)
Time: 05:38:00
(UTC+00:00)

MOS 1 Rocket - Pass Details

Date: 09 April 2020
Orbit: 614 x 831 km, 97.4° (Epoch: 05 June)

Event Time Altitude Azimuth Distance (km) Brightness Sun altitude
Rises 16:00:49 0° 12° (NNE) 3,367 7.0 -21.2°
Reaches altitude 10° 16:03:11 10° 14° (NNE) 2,438 6.2 -21.6°
Maximum altitude 16:08:39 81° 101° (ESE) 843 3.5 -22.7°
Enters shadow 16:13:18 14° 188° (S) 2,119 5.6 -23.6°
